User: anonymous   Login
Location: Unspecified
(0.0000°N, 0.0000°E)
Time: 10:45:31
(UTC+00:00)
Language:

CUTE-I - Orbit

View from above orbital plane
View from above orbital plane
View from above satellite
View from above satellite

Ground track
Ground track

The orbit data is extracted from the following two-line orbital elements,

1 27844U 03031E   20216.49713268 +.00000036 +00000-0 +35973-4 0  9993
2 27844 098.6816 223.5211 0008631 281.0166 079.0040 14.22249305886782
Epoch (UTC): 03 August 2020 11:55:52
Eccentricity: 0.0008631
inclination: 98.6816°
perigee height: 811 km
apogee height: 824 km
right ascension of ascending node: 223.5211°
argument of perigee: 281.0166°
revolutions per day: 14.22249305
mean anomaly at epoch: 79.0040°
orbit number at epoch: 88678

The dashed part of the orbit path shows where the satellite is in the earth's shadow,  

DLR